Time,TemperatureF,DewpointF,PressureIn,WindDirection,WindDirectionDegrees,WindSpeedMPH,WindSpeedGustMPH,Humidity,HourlyPrecipIn,Conditions,Clouds,dailyrainin,SolarRadiationWatts/m^2,SoftwareType,DateUTC
2013-02-21 00:18:00,36.6,25.0,29.75,WSW,243,4.0,14.0,62,0.00,,,0.00,0,weatherlink.com 1.10,2013-02-21 07:18:00,
2013-02-21 00:33:00,36.0,24.0,29.74,WSW,241,10.0,16.0,63,0.00,,,0.00,0,weatherlink.com 1.10,2013-02-21 07:33:00,
2013-02-21 00:48:00,35.7,25.0,29.75,WSW,244,10.0,14.0,65,0.00,,,0.00,0,weatherlink.com 1.10,2013-02-21 07:48:00,
2013-02-21 01:04:00,35.5,25.0,29.75,WSW,238,8.0,13.0,66,0.00,,,0.00,0,weatherlink.com 1.10,2013-02-21 08:04:00,
2013-02-21 01:19:00,35.3,26.0,29.75,WSW,237,1.0,18.0,69,0.00,,,0.00,0,weatherlink.com 1.10,2013-02-21 08:19:00,
2013-02-21 01:34:00,35.1,27.0,29.75,WSW,241,0.0,16.0,71,0.00,,,0.00,0,weatherlink.com 1.10,2013-02-21 08:34:00,
2013-02-21 01:49:00,34.9,27.0,29.75,WSW,249,4.0,16.0,73,0.00,,,0.00,0,weatherlink.com 1.10,2013-02-21 08:49:00,
2013-02-21 02:04:00,35.4,27.0,29.76,SW,232,8.0,16.0,72,0.00,,,0.00,0,weatherlink.com 1.10,2013-02-21 09:04:00,
2013-02-21 02:19:00,35.7,27.0,29.77,West,259,5.0,13.0,70,0.00,,,0.00,0,weatherlink.com 1.10,2013-02-21 09:19:00,
2013-02-21 02:34:00,35.9,26.0,29.76,WSW,242,5.0,18.0,68,0.00,,,0.00,0,weatherlink.com 1.10,2013-02-21 09:34:00,
2013-02-21 02:49:00,35.3,26.0,29.77,SW,232,13.0,16.0,70,0.00,,,0.00,0,weatherlink.com 1.10,2013-02-21 09:49:00,
2013-02-21 03:04:00,34.8,26.0,29.77,WSW,240,8.0,16.0,71,0.00,,,0.00,0,weatherlink.com 1.10,2013-02-21 10:04:00,
2013-02-21 03:19:00,34.4,26.0,29.78,WSW,242,1.0,17.0,71,0.00,,,0.00,0,weatherlink.com 1.10,2013-02-21 10:19:00,
2013-02-21 03:34:00,34.4,26.0,29.78,WSW,241,5.0,20.0,70,0.00,,,0.00,0,weatherlink.com 1.10,2013-02-21 10:34:00,
2013-02-21 03:49:00,34.1,25.0,29.78,WSW,240,14.0,19.0,70,0.00,,,0.00,0,weatherlink.com 1.10,2013-02-21 10:49:00,
2013-02-21 04:04:00,33.7,25.0,29.78,WSW,248,4.0,20.0,70,0.00,,,0.00,0,weatherlink.com 1.10,2013-02-21 11:04:00,
2013-02-21 04:19:00,33.5,25.0,29.80,WSW,238,12.0,19.0,70,0.00,,,0.00,0,weatherlink.com 1.10,2013-02-21 11:19:00,
2013-02-21 04:34:00,33.4,24.0,29.80,WSW,241,13.0,22.0,69,0.00,,,0.00,0,weatherlink.com 1.10,2013-02-21 11:34:00,
2013-02-21 04:49:00,33.3,24.0,29.81,SW,236,22.0,22.0,68,0.00,,,0.00,0,weatherlink.com 1.10,2013-02-21 11:49:00,
2013-02-21 05:04:00,33.0,23.0,29.82,SW,236,4.0,20.0,68,0.00,,,0.00,0,weatherlink.com 1.10,2013-02-21 12:04:00,
2013-02-21 05:19:00,33.0,23.0,29.80,SW,231,17.0,22.0,68,0.00,,,0.00,0,weatherlink.com 1.10,2013-02-21 12:19:00,
2013-02-21 05:34:00,32.7,23.0,29.80,WSW,238,13.0,21.0,68,0.00,,,0.00,0,weatherlink.com 1.10,2013-02-21 12:34:00,
2013-02-21 05:49:00,32.5,23.0,29.79,SW,232,11.0,23.0,68,0.00,,,0.00,0,weatherlink.com 1.10,2013-02-21 12:49:00,
2013-02-21 06:04:00,32.6,23.0,29.84,West,275,3.0,22.0,67,0.00,,,0.00,0,weatherlink.com 1.10,2013-02-21 13:04:00,
2013-02-21 06:19:00,33.1,22.0,29.87,NNE,13,1.0,13.0,65,0.00,,,0.00,0,weatherlink.com 1.10,2013-02-21 13:19:00,
2013-02-21 06:34:00,33.4,22.0,29.85,West,260,6.0,20.0,63,0.00,,,0.00,0,weatherlink.com 1.10,2013-02-21 13:34:00,
2013-02-21 06:49:00,33.5,22.0,29.87,WNW,283,10.0,18.0,62,0.00,,,0.00,11,weatherlink.com 1.10,2013-02-21 13:49:00,
2013-02-21 07:05:00,33.9,22.0,29.91,North,9,4.0,12.0,61,0.00,,,0.00,23,weatherlink.com 1.10,2013-02-21 14:05:00,
2013-02-21 07:19:00,34.4,21.0,29.89,SW,233,8.0,20.0,59,0.00,,,0.00,60,weatherlink.com 1.10,2013-02-21 14:19:00,
2013-02-21 07:35:00,34.9,22.0,29.88,WSW,242,5.0,19.0,59,0.00,,,0.00,111,weatherlink.com 1.10,2013-02-21 14:35:00,
2013-02-21 07:50:00,35.0,22.0,29.90,WSW,247,1.0,22.0,59,0.00,,,0.00,174,weatherlink.com 1.10,2013-02-21 14:50:00,
2013-02-21 08:05:00,35.4,22.0,29.93,West,263,7.0,14.0,59,0.00,,,0.00,234,weatherlink.com 1.10,2013-02-21 15:05:00,
2013-02-21 08:20:00,35.9,23.0,29.96,West,271,0.0,19.0,59,0.00,,,0.00,290,weatherlink.com 1.10,2013-02-21 15:20:00,
2013-02-21 08:35:00,36.4,23.0,29.94,WSW,240,6.0,17.0,58,0.00,,,0.00,343,weatherlink.com 1.10,2013-02-21 15:35:00,
2013-02-21 08:50:00,37.2,23.0,29.94,West,263,3.0,17.0,57,0.00,,,0.00,388,weatherlink.com 1.10,2013-02-21 15:50:00,
2013-02-21 09:06:00,37.3,23.0,29.95,WSW,239,15.0,25.0,57,0.00,,,0.00,438,weatherlink.com 1.10,2013-02-21 16:06:00,
2013-02-21 09:20:00,38.1,23.0,29.95,WSW,242,19.0,20.0,55,0.00,,,0.00,480,weatherlink.com 1.10,2013-02-21 16:20:00,
2013-02-21 09:35:00,39.0,23.0,29.95,WSW,246,6.0,18.0,54,0.00,,,0.00,526,weatherlink.com 1.10,2013-02-21 16:35:00,
2013-02-21 09:50:00,39.8,23.0,29.94,West,279,5.0,20.0,51,0.00,,,0.00,563,weatherlink.com 1.10,2013-02-21 16:50:00,
2013-02-21 10:05:00,39.5,23.0,29.94,WSW,245,5.0,22.0,51,0.00,,,0.00,601,weatherlink.com 1.10,2013-02-21 17:05:00,
2013-02-21 10:20:00,40.8,24.0,29.95,WSW,242,5.0,20.0,51,0.00,,,0.00,635,weatherlink.com 1.10,2013-02-21 17:20:00,
2013-02-21 10:35:00,41.7,24.0,29.94,West,259,0.0,17.0,50,0.00,,,0.00,664,weatherlink.com 1.10,2013-02-21 17:35:00,
2013-02-21 10:50:00,43.2,25.0,29.93,WNW,283,0.0,16.0,48,0.00,,,0.00,691,weatherlink.com 1.10,2013-02-21 17:50:00,
2013-02-21 11:06:00,43.8,24.0,29.93,SW,234,4.0,13.0,46,0.00,,,0.00,714,weatherlink.com 1.10,2013-02-21 18:06:00,
2013-02-21 11:21:00,43.9,23.0,29.93,WNW,300,10.0,20.0,44,0.00,,,0.00,735,weatherlink.com 1.10,2013-02-21 18:21:00,
2013-02-21 11:36:00,43.8,24.0,29.92,WSW,237,9.0,24.0,45,0.00,,,0.00,749,weatherlink.com 1.10,2013-02-21 18:36:00,
2013-02-21 11:51:00,44.8,23.0,29.93,WSW,242,15.0,23.0,43,0.00,,,0.00,758,weatherlink.com 1.10,2013-02-21 18:51:00,
2013-02-21 12:06:00,45.7,25.0,29.94,WSW,255,1.0,17.0,44,0.00,,,0.00,761,weatherlink.com 1.10,2013-02-21 19:06:00,
2013-02-21 12:21:00,45.8,24.0,29.93,WSW,257,4.0,16.0,43,0.00,,,0.00,761,weatherlink.com 1.10,2013-02-21 19:21:00,
2013-02-21 12:36:00,47.1,25.0,29.92,WNW,282,2.0,17.0,42,0.00,,,0.00,761,weatherlink.com 1.10,2013-02-21 19:36:00,
2013-02-21 12:51:00,47.5,25.0,29.91,SW,234,5.0,19.0,41,0.00,,,0.00,758,weatherlink.com 1.10,2013-02-21 19:51:00,
2013-02-21 13:06:00,47.7,25.0,29.91,WSW,245,5.0,16.0,41,0.00,,,0.00,747,weatherlink.com 1.10,2013-02-21 20:06:00,
2013-02-21 13:21:00,48.4,25.0,29.91,SW,222,6.0,14.0,40,0.00,,,0.00,731,weatherlink.com 1.10,2013-02-21 20:21:00,
2013-02-21 13:36:00,48.9,25.0,29.90,West,280,4.0,16.0,40,0.00,,,0.00,714,weatherlink.com 1.10,2013-02-21 20:36:00,
2013-02-21 13:51:00,49.9,25.0,29.89,WSW,245,0.0,14.0,38,0.00,,,0.00,694,weatherlink.com 1.10,2013-02-21 20:51:00,
2013-02-21 14:06:00,49.7,24.0,29.88,SW,236,6.0,15.0,37,0.00,,,0.00,668,weatherlink.com 1.10,2013-02-21 21:06:00,
2013-02-21 14:21:00,49.4,24.0,29.87,WSW,242,8.0,19.0,37,0.00,,,0.00,640,weatherlink.com 1.10,2013-02-21 21:21:00,
2013-02-21 14:36:00,50.1,25.0,29.86,SW,234,3.0,14.0,37,0.00,,,0.00,608,weatherlink.com 1.10,2013-02-21 21:36:00,
2013-02-21 14:51:00,50.7,24.0,29.86,SW,236,3.0,15.0,36,0.00,,,0.00,570,weatherlink.com 1.10,2013-02-21 21:51:00,
2013-02-21 15:06:00,50.8,25.0,29.86,SW,232,0.0,13.0,36,0.00,,,0.00,527,weatherlink.com 1.10,2013-02-21 22:06:00,
2013-02-21 15:21:00,50.9,23.0,29.86,West,264,4.0,15.0,34,0.00,,,0.00,480,weatherlink.com 1.10,2013-02-21 22:21:00,
2013-02-21 15:36:00,51.5,23.0,29.86,SW,234,6.0,20.0,33,0.00,,,0.00,434,weatherlink.com 1.10,2013-02-21 22:36:00,
2013-02-21 15:51:00,50.8,23.0,29.86,WSW,250,3.0,20.0,34,0.00,,,0.00,388,weatherlink.com 1.10,2013-02-21 22:51:00,
2013-02-21 16:06:00,51.2,23.0,29.86,West,263,3.0,21.0,33,0.00,,,0.00,339,weatherlink.com 1.10,2013-02-21 23:06:00,
2013-02-21 16:21:00,50.9,22.0,29.86,SW,233,13.0,22.0,32,0.00,,,0.00,287,weatherlink.com 1.10,2013-02-21 23:21:00,
2013-02-21 16:36:00,50.9,23.0,29.86,WSW,248,9.0,16.0,33,0.00,,,0.00,229,weatherlink.com 1.10,2013-02-21 23:36:00,
2013-02-21 16:51:00,51.3,23.0,29.87,West,276,7.0,12.0,33,0.00,,,0.00,163,weatherlink.com 1.10,2013-02-21 23:51:00,
2013-02-21 17:06:00,50.6,23.0,29.87,West,281,7.0,17.0,34,0.00,,,0.00,107,weatherlink.com 1.10,2013-02-22 00:06:00,
2013-02-21 17:21:00,49.8,22.0,29.87,WSW,242,3.0,17.0,34,0.00,,,0.00,54,weatherlink.com 1.10,2013-02-22 00:21:00,
2013-02-21 17:36:00,48.9,23.0,29.88,WSW,238,7.0,18.0,36,0.00,,,0.00,16,weatherlink.com 1.10,2013-02-22 00:36:00,
2013-02-21 17:51:00,48.4,24.0,29.89,SW,234,2.0,13.0,38,0.00,,,0.00,7,weatherlink.com 1.10,2013-02-22 00:51:00,
2013-02-21 18:07:00,47.9,24.0,29.89,WSW,254,0.0,14.0,39,0.00,,,0.00,0,weatherlink.com 1.10,2013-02-22 01:07:00,
2013-02-21 18:21:00,47.5,25.0,29.90,WSW,242,0.0,5.0,41,0.00,,,0.00,0,weatherlink.com 1.10,2013-02-22 01:21:00,
2013-02-21 18:36:00,46.9,25.0,29.91,West,271,0.0,11.0,43,0.00,,,0.00,0,weatherlink.com 1.10,2013-02-22 01:36:00,
2013-02-21 18:51:00,46.4,25.0,29.91,West,273,3.0,7.0,44,0.00,,,0.00,0,weatherlink.com 1.10,2013-02-22 01:51:00,
2013-02-21 19:06:00,46.0,26.0,29.91,West,276,0.0,9.0,45,0.00,,,0.00,0,weatherlink.com 1.10,2013-02-22 02:06:00,
2013-02-21 19:21:00,45.4,26.0,29.91,West,276,0.0,7.0,46,0.00,,,0.00,0,weatherlink.com 1.10,2013-02-22 02:21:00,
2013-02-21 19:36:00,44.8,26.0,29.92,West,276,0.0,6.0,48,0.00,,,0.00,0,weatherlink.com 1.10,2013-02-22 02:36:00,
2013-02-21 19:51:00,44.6,25.0,29.93,West,277,2.0,8.0,47,0.00,,,0.00,0,weatherlink.com 1.10,2013-02-22 02:51:00,
2013-02-21 20:07:00,44.3,25.0,29.93,West,277,0.0,7.0,47,0.00,,,0.00,0,weatherlink.com 1.10,2013-02-22 03:07:00,
2013-02-21 20:21:00,43.9,25.0,29.93,West,278,0.0,3.0,47,0.00,,,0.00,0,weatherlink.com 1.10,2013-02-22 03:21:00,
2013-02-21 20:36:00,43.6,24.0,29.94,West,277,0.0,7.0,47,0.00,,,0.00,0,weatherlink.com 1.10,2013-02-22 03:36:00,
2013-02-21 20:51:00,43.4,24.0,29.94,West,278,0.0,4.0,47,0.00,,,0.00,0,weatherlink.com 1.10,2013-02-22 03:51:00,
2013-02-21 21:06:00,43.3,24.0,29.95,West,278,0.0,1.0,47,0.00,,,0.00,0,weatherlink.com 1.10,2013-02-22 04:06:00,
2013-02-21 21:21:00,43.1,24.0,29.95,West,278,0.0,4.0,47,0.00,,,0.00,0,weatherlink.com 1.10,2013-02-22 04:21:00,
2013-02-21 21:36:00,42.8,23.0,29.95,West,277,0.0,0.0,46,0.00,,,0.00,0,weatherlink.com 1.10,2013-02-22 04:36:00,
2013-02-21 21:51:00,42.6,23.0,29.95,West,277,0.0,0.0,46,0.00,,,0.00,0,weatherlink.com 1.10,2013-02-22 04:51:00,
2013-02-21 22:06:00,42.0,23.0,29.95,West,278,0.0,0.0,47,0.00,,,0.00,0,weatherlink.com 1.10,2013-02-22 05:06:00,
2013-02-21 22:21:00,41.5,23.0,29.96,West,278,0.0,0.0,48,0.00,,,0.00,0,weatherlink.com 1.10,2013-02-22 05:21:00,
2013-02-21 22:36:00,41.3,23.0,29.95,West,278,0.0,0.0,49,0.00,,,0.00,0,weatherlink.com 1.10,2013-02-22 05:36:00,
2013-02-21 22:51:00,41.3,23.0,29.95,West,278,0.0,0.0,49,0.00,,,0.00,0,weatherlink.com 1.10,2013-02-22 05:51:00,
2013-02-21 23:06:00,40.7,23.0,29.96,West,278,0.0,0.0,50,0.00,,,0.00,0,weatherlink.com 1.10,2013-02-22 06:06:00,
2013-02-21 23:22:00,40.2,24.0,29.96,West,277,0.0,0.0,52,0.00,,,0.00,0,weatherlink.com 1.10,2013-02-22 06:22:00,
2013-02-21 23:37:00,39.8,25.0,29.96,West,277,0.0,0.0,55,0.00,,,0.00,0,weatherlink.com 1.10,2013-02-22 06:37:00,
2013-02-21 23:51:00,39.3,24.0,29.96,West,278,0.0,0.0,54,0.00,,,0.00,0,weatherlink.com 1.10,2013-02-22 06:51:00,